Year,Month,Day,Hour,Minute,Value (Times are PST for windgust in km/hr)
2015,12,12,01,52,1.60
2015,12,12,01,53,4.80
2015,12,12,01,54,3.20
2015,12,12,01,55,1.60
2015,12,12,01,56,3.20
2015,12,12,02,27,1.60
2015,12,12,02,34,1.60
2015,12,12,03,00,1.60
2015,12,12,03,01,1.60
2015,12,12,03,15,1.60
2015,12,12,03,17,1.60
2015,12,12,03,18,1.60
2015,12,12,03,36,1.60
2015,12,12,03,40,3.20
2015,12,12,03,41,3.20
2015,12,12,03,44,1.60
2015,12,12,03,49,3.20
2015,12,12,03,50,1.60
2015,12,12,03,51,3.20
2015,12,12,03,52,1.60
2015,12,12,04,04,3.20
2015,12,12,04,05,1.60
2015,12,12,04,06,3.20
2015,12,12,04,07,3.20
2015,12,12,04,08,6.40
2015,12,12,04,09,6.40
2015,12,12,04,10,4.80
2015,12,12,04,11,4.80
2015,12,12,04,12,6.40
2015,12,12,04,13,6.40
2015,12,12,04,14,9.60
2015,12,12,04,15,6.40
2015,12,12,04,16,3.20
2015,12,12,04,17,9.60
2015,12,12,04,18,8.10
2015,12,12,04,19,4.80
2015,12,12,04,20,6.40
2015,12,12,04,21,6.40
2015,12,12,04,22,8.10
2015,12,12,04,23,6.40
2015,12,12,04,24,6.40
2015,12,12,04,25,11.30
2015,12,12,04,26,8.10
2015,12,12,04,27,9.60
2015,12,12,04,28,11.30
2015,12,12,04,29,17.70
2015,12,12,04,30,22.50
2015,12,12,04,31,11.30
2015,12,12,04,32,16.10
2015,12,12,04,33,14.50
2015,12,12,04,34,9.60
2015,12,12,04,35,9.60
2015,12,12,04,36,11.30
2015,12,12,04,37,9.60
2015,12,12,04,38,8.10
2015,12,12,04,39,8.10
2015,12,12,04,40,3.20
2015,12,12,04,41,8.10
2015,12,12,04,42,9.60
2015,12,12,04,43,11.30
2015,12,12,04,44,8.10
2015,12,12,04,45,3.20
2015,12,12,04,46,4.80
2015,12,12,04,47,8.10
2015,12,12,04,48,8.10
2015,12,12,04,49,6.40
2015,12,12,04,50,8.10
2015,12,12,04,51,9.60
2015,12,12,04,52,6.40
2015,12,12,04,53,8.10
2015,12,12,04,54,8.10
2015,12,12,04,55,6.40
2015,12,12,04,56,17.70
2015,12,12,04,57,9.60
2015,12,12,04,58,8.10
2015,12,12,04,59,6.40
2015,12,12,05,00,11.30
2015,12,12,05,01,4.80
2015,12,12,05,02,4.80
2015,12,12,05,03,11.30
2015,12,12,05,04,8.10
2015,12,12,05,05,11.30
2015,12,12,05,06,9.60
2015,12,12,05,07,11.30
2015,12,12,05,08,9.60
2015,12,12,05,09,11.30
2015,12,12,05,10,14.50
2015,12,12,05,11,14.50
2015,12,12,05,12,14.50
2015,12,12,05,13,9.60
2015,12,12,05,14,9.60
2015,12,12,05,15,9.60
2015,12,12,05,16,16.10
2015,12,12,05,17,14.50
2015,12,12,05,18,14.50
2015,12,12,05,19,6.40
2015,12,12,05,20,9.60
2015,12,12,05,21,8.10
2015,12,12,05,22,6.40
2015,12,12,05,23,11.30
2015,12,12,05,24,8.10
2015,12,12,05,25,9.60
2015,12,12,05,26,11.30
2015,12,12,05,27,11.30
2015,12,12,05,28,8.10
2015,12,12,05,29,11.30
2015,12,12,05,30,11.30
2015,12,12,05,31,9.60
2015,12,12,05,32,11.30
2015,12,12,05,33,14.50
2015,12,12,05,34,8.10
2015,12,12,05,35,9.60
2015,12,12,05,36,8.10
2015,12,12,05,37,11.30
2015,12,12,05,38,19.30
2015,12,12,05,39,9.60
2015,12,12,05,40,11.30
2015,12,12,05,41,14.50
2015,12,12,05,42,14.50
2015,12,12,05,43,19.30
2015,12,12,05,44,12.90
2015,12,12,05,45,14.50
2015,12,12,05,46,14.50
2015,12,12,05,47,11.30
2015,12,12,05,48,11.30
2015,12,12,05,49,12.90
2015,12,12,05,50,20.90
2015,12,12,05,51,22.50
2015,12,12,05,52,12.90
2015,12,12,05,53,6.40
2015,12,12,05,54,9.60
2015,12,12,05,55,16.10
2015,12,12,05,56,16.10
2015,12,12,05,57,9.60
2015,12,12,05,58,8.10
2015,12,12,05,59,8.10
2015,12,12,06,00,4.80
2015,12,12,06,01,6.40
2015,12,12,06,02,9.60
2015,12,12,06,03,8.10
2015,12,12,06,04,8.10
2015,12,12,06,05,11.30
2015,12,12,06,06,9.60
2015,12,12,06,07,8.10
2015,12,12,06,08,16.10
2015,12,12,06,09,11.30
2015,12,12,06,10,11.30
2015,12,12,06,11,9.60
2015,12,12,06,12,9.60
2015,12,12,06,13,9.60
2015,12,12,06,14,4.80
2015,12,12,06,15,16.10
2015,12,12,06,16,16.10
2015,12,12,06,17,9.60
2015,12,12,06,18,8.10
2015,12,12,06,19,12.90
2015,12,12,06,20,11.30
2015,12,12,06,21,8.10
2015,12,12,06,22,8.10
2015,12,12,06,23,6.40
2015,12,12,06,24,11.30
2015,12,12,06,25,9.60
2015,12,12,06,26,19.30
2015,12,12,06,27,16.10
2015,12,12,06,28,16.10
2015,12,12,06,29,20.90
2015,12,12,06,30,12.90
2015,12,12,06,31,14.50
2015,12,12,06,32,16.10
2015,12,12,06,33,11.30
2015,12,12,06,34,8.10
2015,12,12,06,35,14.50
2015,12,12,06,36,12.90
2015,12,12,06,37,11.30
2015,12,12,06,38,14.50
2015,12,12,06,39,11.30
2015,12,12,06,40,14.50
2015,12,12,06,41,9.60
2015,12,12,06,42,8.10
2015,12,12,06,43,16.10
2015,12,12,06,44,17.70
2015,12,12,06,45,11.30
2015,12,12,06,46,8.10
2015,12,12,06,47,9.60
2015,12,12,06,48,6.40
2015,12,12,06,49,8.10
2015,12,12,06,50,17.70
2015,12,12,06,51,11.30
2015,12,12,06,52,8.10
2015,12,12,06,53,9.60
2015,12,12,06,54,14.50
2015,12,12,06,55,19.30
2015,12,12,06,56,17.70
2015,12,12,06,57,14.50
2015,12,12,06,58,17.70
2015,12,12,06,59,16.10
2015,12,12,07,00,12.90
2015,12,12,07,01,16.10
2015,12,12,07,02,8.10
2015,12,12,07,03,11.30
2015,12,12,07,04,9.60
2015,12,12,07,05,9.60
2015,12,12,07,06,14.50
2015,12,12,07,07,9.60
2015,12,12,07,08,8.10
2015,12,12,07,09,17.70
2015,12,12,07,10,14.50
2015,12,12,07,11,11.30
2015,12,12,07,12,9.60
2015,12,12,07,13,8.10
2015,12,12,07,14,11.30
2015,12,12,07,15,9.60
2015,12,12,07,16,9.60
2015,12,12,07,17,6.40
2015,12,12,07,18,6.40
2015,12,12,07,19,6.40
2015,12,12,07,20,3.20
2015,12,12,07,21,6.40
2015,12,12,07,22,6.40
2015,12,12,07,23,1.60
2015,12,12,07,24,4.80
2015,12,12,07,25,9.60
2015,12,12,07,26,11.30
2015,12,12,07,27,9.60
2015,12,12,07,28,16.10
2015,12,12,07,29,9.60
2015,12,12,07,30,6.40
2015,12,12,07,31,4.80
2015,12,12,07,32,4.80
2015,12,12,07,33,8.10
2015,12,12,07,34,8.10
2015,12,12,07,35,12.90
2015,12,12,07,36,12.90
2015,12,12,07,37,8.10
2015,12,12,07,38,8.10
2015,12,12,07,39,6.40
2015,12,12,07,40,8.10
2015,12,12,07,41,8.10
2015,12,12,07,42,6.40
2015,12,12,07,43,4.80
2015,12,12,07,44,1.60
2015,12,12,07,48,3.20
2015,12,12,07,49,4.80
2015,12,12,07,50,1.60
2015,12,12,07,51,1.60
2015,12,12,07,52,3.20
2015,12,12,07,53,1.60
2015,12,12,07,54,6.40
2015,12,12,07,55,8.10
2015,12,12,07,56,16.10
2015,12,12,07,57,11.30
2015,12,12,07,58,16.10
2015,12,12,07,59,8.10
2015,12,12,08,00,8.10
2015,12,12,08,01,8.10
2015,12,12,08,02,4.80
2015,12,12,08,03,9.60
2015,12,12,08,04,9.60
2015,12,12,08,05,9.60
2015,12,12,08,06,11.30
2015,12,12,08,07,8.10
2015,12,12,08,08,6.40
2015,12,12,08,09,4.80
2015,12,12,08,10,3.20
2015,12,12,08,11,9.60
2015,12,12,08,12,9.60
2015,12,12,08,13,8.10
2015,12,12,08,14,6.40
2015,12,12,08,15,3.20
2015,12,12,08,16,4.80
2015,12,12,08,17,6.40
2015,12,12,08,18,8.10
2015,12,12,08,19,16.10
2015,12,12,08,20,8.10
2015,12,12,08,21,3.20
2015,12,12,08,22,1.60
2015,12,12,08,23,1.60
2015,12,12,08,24,3.20
2015,12,12,08,25,4.80
2015,12,12,08,26,4.80
2015,12,12,08,30,3.20
2015,12,12,08,32,3.20
2015,12,12,08,33,3.20
2015,12,12,08,34,4.80
2015,12,12,08,35,3.20
2015,12,12,08,36,1.60
2015,12,12,08,37,3.20
2015,12,12,08,38,3.20
2015,12,12,08,39,4.80
2015,12,12,08,40,8.10
2015,12,12,08,41,6.40
2015,12,12,08,42,6.40
2015,12,12,08,43,9.60
2015,12,12,08,44,6.40
2015,12,12,08,45,6.40
2015,12,12,08,46,8.10
2015,12,12,08,47,6.40
2015,12,12,08,48,8.10
2015,12,12,08,49,3.20
2015,12,12,08,50,4.80
2015,12,12,08,51,3.20
2015,12,12,08,52,3.20
2015,12,12,08,53,8.10
2015,12,12,08,54,6.40
2015,12,12,08,55,6.40
2015,12,12,08,56,4.80
2015,12,12,08,57,4.80
2015,12,12,08,58,6.40
2015,12,12,08,59,6.40
2015,12,12,09,00,9.60
2015,12,12,09,01,8.10
2015,12,12,09,02,4.80
2015,12,12,09,03,4.80
2015,12,12,09,04,4.80
2015,12,12,09,05,6.40
2015,12,12,09,06,4.80
2015,12,12,09,07,8.10
2015,12,12,09,08,8.10
2015,12,12,09,09,9.60
2015,12,12,09,10,8.10
2015,12,12,09,11,4.80
2015,12,12,09,12,6.40
2015,12,12,09,13,6.40
2015,12,12,09,14,8.10
2015,12,12,09,15,4.80
2015,12,12,09,16,4.80
2015,12,12,09,17,4.80
2015,12,12,09,18,8.10
2015,12,12,09,19,8.10
2015,12,12,09,20,4.80
2015,12,12,09,21,8.10
2015,12,12,09,22,9.60
2015,12,12,09,23,9.60
2015,12,12,09,24,8.10
2015,12,12,09,25,6.40
2015,12,12,09,26,9.60
2015,12,12,09,27,14.50
2015,12,12,09,28,4.80
2015,12,12,09,29,8.10
2015,12,12,09,30,8.10
2015,12,12,09,31,8.10
2015,12,12,09,32,11.30
2015,12,12,09,33,16.10
2015,12,12,09,34,14.50
2015,12,12,09,35,16.10
2015,12,12,09,36,25.70
2015,12,12,09,37,16.10
2015,12,12,09,38,24.20
2015,12,12,09,39,14.50
2015,12,12,09,40,19.30
2015,12,12,09,41,22.50
2015,12,12,09,42,20.90
2015,12,12,09,43,19.30
2015,12,12,09,44,9.60
2015,12,12,09,45,25.70
2015,12,12,09,46,16.10
2015,12,12,09,47,17.70
2015,12,12,09,48,22.50
2015,12,12,09,49,25.70
2015,12,12,09,50,17.70
2015,12,12,09,51,30.60
2015,12,12,09,52,24.20
2015,12,12,09,53,20.90
2015,12,12,09,54,30.60
2015,12,12,09,55,22.50
2015,12,12,09,56,27.40
2015,12,12,09,57,33.80
2015,12,12,09,58,24.20
2015,12,12,09,59,24.20
2015,12,12,10,00,32.20
2015,12,12,10,01,22.50
2015,12,12,10,02,27.40
2015,12,12,10,03,29.00
2015,12,12,10,04,29.00
2015,12,12,10,05,22.50
2015,12,12,10,06,32.20
2015,12,12,10,07,32.20
2015,12,12,10,08,46.70
2015,12,12,10,09,32.20
2015,12,12,10,10,32.20
2015,12,12,10,11,35.40
2015,12,12,10,12,35.40
2015,12,12,10,13,32.20
2015,12,12,10,14,25.70
2015,12,12,10,15,40.20
2015,12,12,10,16,38.60
2015,12,12,10,17,30.60
2015,12,12,10,18,32.20
2015,12,12,10,19,29.00
2015,12,12,10,20,27.40
2015,12,12,10,21,25.70
2015,12,12,10,22,37.00
2015,12,12,10,23,29.00
2015,12,12,10,24,29.00
2015,12,12,10,25,27.40
2015,12,12,10,26,27.40
2015,12,12,10,27,30.60
2015,12,12,10,28,38.60
2015,12,12,10,29,32.20
2015,12,12,10,30,38.60
2015,12,12,10,31,35.40
2015,12,12,10,32,32.20
2015,12,12,10,33,25.70
2015,12,12,10,34,38.60
2015,12,12,10,35,37.00
2015,12,12,10,36,27.40
2015,12,12,10,37,25.70
2015,12,12,10,38,22.50
2015,12,12,10,39,24.20
2015,12,12,10,40,30.60
2015,12,12,10,41,29.00
2015,12,12,10,42,37.00
2015,12,12,10,43,27.40
2015,12,12,10,44,30.60
2015,12,12,10,45,41.80
2015,12,12,10,46,35.40
2015,12,12,10,47,20.90
2015,12,12,10,48,38.60
2015,12,12,10,49,29.00
2015,12,12,10,50,22.50
2015,12,12,10,51,51.50
2015,12,12,10,52,49.90
2015,12,12,10,53,25.70
2015,12,12,10,54,49.90
2015,12,12,10,55,37.00
2015,12,12,10,56,37.00
2015,12,12,10,57,40.20
2015,12,12,10,58,40.20
2015,12,12,10,59,32.20
2015,12,12,11,00,41.80
2015,12,12,11,01,32.20
2015,12,12,11,02,37.00
2015,12,12,11,03,45.10
2015,12,12,11,04,24.20
2015,12,12,11,05,29.00
2015,12,12,11,06,40.20
2015,12,12,11,07,45.10
2015,12,12,11,08,53.10
2015,12,12,11,09,35.40
2015,12,12,11,10,38.60
2015,12,12,11,11,29.00
2015,12,12,11,12,51.50
2015,12,12,11,13,33.80
2015,12,12,11,14,53.10
2015,12,12,11,15,35.40
2015,12,12,11,16,24.20
2015,12,12,11,17,25.70
2015,12,12,11,18,33.80
2015,12,12,11,19,37.00
2015,12,12,11,20,53.10
2015,12,12,11,21,45.10
2015,12,12,11,22,29.00
2015,12,12,11,23,48.30
2015,12,12,11,24,45.10
2015,12,12,11,25,38.60
2015,12,12,11,26,35.40
2015,12,12,11,27,32.20
2015,12,12,11,28,46.70
2015,12,12,11,29,35.40
2015,12,12,11,30,29.00
2015,12,12,11,31,41.80
2015,12,12,11,32,38.60
2015,12,12,11,33,49.90
2015,12,12,11,34,37.00
2015,12,12,11,35,46.70
2015,12,12,11,36,37.00
2015,12,12,11,37,48.30
2015,12,12,11,38,56.30
2015,12,12,11,39,35.40
2015,12,12,11,40,49.90
2015,12,12,11,41,40.20
2015,12,12,11,42,33.80
2015,12,12,11,43,49.90
2015,12,12,11,44,33.80
2015,12,12,11,45,43.50
2015,12,12,11,46,57.90
2015,12,12,11,47,35.40
2015,12,12,11,48,51.50
2015,12,12,11,49,49.90
2015,12,12,11,50,30.60
2015,12,12,11,51,51.50
2015,12,12,11,52,40.20
2015,12,12,11,53,45.10
2015,12,12,11,54,32.20
2015,12,12,11,55,33.80
2015,12,12,11,56,45.10
2015,12,12,11,57,41.80
2015,12,12,11,58,49.90
2015,12,12,11,59,49.90
2015,12,12,12,00,59.50
2015,12,12,12,01,41.80
2015,12,12,12,02,51.50
2015,12,12,12,03,45.10
2015,12,12,12,04,32.20
2015,12,12,12,05,32.20
2015,12,12,12,06,25.70
2015,12,12,12,07,37.00
2015,12,12,12,08,38.60
2015,12,12,12,09,29.00
2015,12,12,12,10,51.50
2015,12,12,12,11,45.10
2015,12,12,12,12,40.20
2015,12,12,12,13,54.70
2015,12,12,12,14,61.20
2015,12,12,12,15,43.50
2015,12,12,12,16,46.70
2015,12,12,12,17,53.10
2015,12,12,12,18,40.20
2015,12,12,12,19,41.80
2015,12,12,12,20,35.40
2015,12,12,12,21,41.80
2015,12,12,12,22,53.10
2015,12,12,12,23,41.80
2015,12,12,12,24,29.00
2015,12,12,12,25,40.20
2015,12,12,12,26,46.70
2015,12,12,12,27,46.70
2015,12,12,12,28,48.30
2015,12,12,12,29,38.60
2015,12,12,12,30,45.10
2015,12,12,12,31,56.30
2015,12,12,12,32,37.00
2015,12,12,12,33,37.00
2015,12,12,12,34,37.00
2015,12,12,12,35,38.60
2015,12,12,12,36,33.80
2015,12,12,12,37,69.20
2015,12,12,12,38,43.50
2015,12,12,12,39,33.80
2015,12,12,12,40,24.20
2015,12,12,12,41,40.20
2015,12,12,12,42,53.10
2015,12,12,12,43,57.90
2015,12,12,12,44,48.30
2015,12,12,12,45,43.50
2015,12,12,12,46,43.50
2015,12,12,12,47,53.10
2015,12,12,12,48,49.90
2015,12,12,12,49,35.40
2015,12,12,12,50,61.20
2015,12,12,12,51,43.50
2015,12,12,12,52,45.10
2015,12,12,12,53,51.50
2015,12,12,12,54,48.30
2015,12,12,12,55,49.90
2015,12,12,12,56,33.80
2015,12,12,12,57,53.10
2015,12,12,12,58,45.10
2015,12,12,12,59,46.70
2015,12,12,13,00,38.60
2015,12,12,13,01,35.40
2015,12,12,13,02,43.50
2015,12,12,13,03,49.90
2015,12,12,13,04,49.90
2015,12,12,13,05,46.70
2015,12,12,13,06,57.90
2015,12,12,13,07,33.80
2015,12,12,13,08,45.10
2015,12,12,13,09,53.10
2015,12,12,13,10,43.50
2015,12,12,13,11,41.80
2015,12,12,13,12,46.70
2015,12,12,13,13,33.80
2015,12,12,13,14,56.30
2015,12,12,13,15,35.40
2015,12,12,13,16,48.30
2015,12,12,13,17,48.30
2015,12,12,13,18,33.80
2015,12,12,13,19,30.60
2015,12,12,13,20,54.70
2015,12,12,13,21,45.10
2015,12,12,13,22,49.90
2015,12,12,13,23,45.10
2015,12,12,13,24,41.80
2015,12,12,13,25,49.90
2015,12,12,13,26,38.60
2015,12,12,13,27,48.30
2015,12,12,13,28,57.90
2015,12,12,13,29,48.30
2015,12,12,13,30,43.50
2015,12,12,13,31,38.60
2015,12,12,13,32,59.50
2015,12,12,13,33,46.70
2015,12,12,13,34,45.10
2015,12,12,13,35,32.20
2015,12,12,13,36,38.60
2015,12,12,13,37,48.30
2015,12,12,13,38,49.90
2015,12,12,13,39,29.00
2015,12,12,13,40,30.60
2015,12,12,13,41,37.00
2015,12,12,13,42,53.10
2015,12,12,13,43,57.90
2015,12,12,13,44,43.50
2015,12,12,13,45,53.10
2015,12,12,13,46,40.20
2015,12,12,13,47,40.20
2015,12,12,13,48,32.20
2015,12,12,13,49,33.80
2015,12,12,13,50,35.40
2015,12,12,13,51,54.70
2015,12,12,13,52,41.80
2015,12,12,13,53,35.40
2015,12,12,13,54,41.80
2015,12,12,13,55,48.30
2015,12,12,13,56,54.70
2015,12,12,13,57,41.80
2015,12,12,13,58,57.90
2015,12,12,13,59,48.30
2015,12,12,14,00,37.00
2015,12,12,14,01,20.90
2015,12,12,14,02,35.40
2015,12,12,14,03,45.10
2015,12,12,14,04,41.80
2015,12,12,14,05,51.50
2015,12,12,14,06,51.50
2015,12,12,14,07,46.70
2015,12,12,14,08,37.00
2015,12,12,14,09,41.80
2015,12,12,14,10,40.20
2015,12,12,14,11,53.10
2015,12,12,14,12,49.90
2015,12,12,14,13,35.40
2015,12,12,14,14,40.20
2015,12,12,14,15,43.50
2015,12,12,14,16,38.60
2015,12,12,14,17,40.20
2015,12,12,14,18,37.00
2015,12,12,14,19,51.50
2015,12,12,14,20,51.50
2015,12,12,14,21,43.50
2015,12,12,14,22,53.10
2015,12,12,14,23,43.50
2015,12,12,14,24,43.50
2015,12,12,14,25,54.70
2015,12,12,14,26,57.90
2015,12,12,14,27,56.30
2015,12,12,14,28,48.30
2015,12,12,14,29,41.80
2015,12,12,14,30,40.20
2015,12,12,14,31,46.70
2015,12,12,14,32,53.10
2015,12,12,14,33,51.50
2015,12,12,14,34,51.50
2015,12,12,14,35,51.50
2015,12,12,14,36,61.20
2015,12,12,14,37,53.10
2015,12,12,14,38,56.30
2015,12,12,14,39,40.20
2015,12,12,14,40,64.40
2015,12,12,14,41,57.90
2015,12,12,14,42,35.40
2015,12,12,14,43,49.90
2015,12,12,14,44,45.10
2015,12,12,14,45,43.50
2015,12,12,14,46,48.30
2015,12,12,14,47,67.60
2015,12,12,14,48,38.60
2015,12,12,14,49,43.50
2015,12,12,14,50,40.20
2015,12,12,14,51,37.00
2015,12,12,14,52,54.70
2015,12,12,14,53,48.30
2015,12,12,14,54,33.80
2015,12,12,14,55,43.50
2015,12,12,14,56,40.20
2015,12,12,14,57,35.40
2015,12,12,14,58,49.90
2015,12,12,14,59,54.70
2015,12,12,15,00,41.80
2015,12,12,15,01,48.30
2015,12,12,15,02,37.00
2015,12,12,15,03,32.20
2015,12,12,15,04,41.80
2015,12,12,15,05,45.10
2015,12,12,15,06,32.20
2015,12,12,15,07,30.60
2015,12,12,15,08,43.50
2015,12,12,15,09,41.80
2015,12,12,15,10,30.60
2015,12,12,15,11,37.00
2015,12,12,15,12,45.10
2015,12,12,15,13,53.10
2015,12,12,15,14,33.80
2015,12,12,15,15,40.20
2015,12,12,15,16,27.40
2015,12,12,15,17,51.50
2015,12,12,15,18,43.50
2015,12,12,15,19,32.20
2015,12,12,15,20,43.50
2015,12,12,15,21,37.00
2015,12,12,15,22,38.60
2015,12,12,15,23,53.10
2015,12,12,15,24,48.30
2015,12,12,15,25,37.00
2015,12,12,15,26,35.40
2015,12,12,15,27,46.70
2015,12,12,15,28,38.60
2015,12,12,15,29,41.80
2015,12,12,15,30,45.10
2015,12,12,15,31,37.00
2015,12,12,15,32,41.80
2015,12,12,15,33,29.00
2015,12,12,15,34,29.00
2015,12,12,15,35,33.80
2015,12,12,15,36,27.40
2015,12,12,15,37,37.00
2015,12,12,15,38,45.10
2015,12,12,15,39,33.80
2015,12,12,15,40,41.80
2015,12,12,15,41,32.20
2015,12,12,15,42,43.50
2015,12,12,15,43,38.60
2015,12,12,15,44,33.80
2015,12,12,15,45,40.20
2015,12,12,15,46,25.70
2015,12,12,15,47,20.90
2015,12,12,15,48,22.50
2015,12,12,15,49,38.60
2015,12,12,15,50,38.60
2015,12,12,15,51,30.60
2015,12,12,15,52,27.40
2015,12,12,15,53,22.50
2015,12,12,15,54,27.40
2015,12,12,15,55,33.80
2015,12,12,15,56,20.90
2015,12,12,15,57,29.00
2015,12,12,15,58,29.00
2015,12,12,15,59,19.30
2015,12,12,16,00,22.50
2015,12,12,16,01,24.20
2015,12,12,16,02,24.20
2015,12,12,16,03,20.90
2015,12,12,16,04,22.50
2015,12,12,16,05,30.60
2015,12,12,16,06,25.70
2015,12,12,16,07,24.20
2015,12,12,16,08,20.90
2015,12,12,16,09,27.40
2015,12,12,16,10,16.10
2015,12,12,16,11,32.20
2015,12,12,16,12,33.80
2015,12,12,16,13,37.00
2015,12,12,16,14,41.80
2015,12,12,16,15,19.30
2015,12,12,16,16,25.70
2015,12,12,16,17,27.40
2015,12,12,16,18,16.10
2015,12,12,16,19,25.70
2015,12,12,16,20,30.60
2015,12,12,16,21,24.20
2015,12,12,16,22,25.70
2015,12,12,16,23,16.10
2015,12,12,16,24,19.30
2015,12,12,16,25,27.40
2015,12,12,16,26,27.40
2015,12,12,16,27,32.20
2015,12,12,16,28,24.20
2015,12,12,16,29,17.70
2015,12,12,16,30,29.00
2015,12,12,16,31,25.70
2015,12,12,16,32,38.60
2015,12,12,16,33,32.20
2015,12,12,16,34,25.70
2015,12,12,16,35,37.00
2015,12,12,16,36,37.00
2015,12,12,16,37,37.00
2015,12,12,16,38,32.20
2015,12,12,16,39,40.20
2015,12,12,16,40,24.20
2015,12,12,16,41,32.20
2015,12,12,16,42,29.00
2015,12,12,16,43,22.50
2015,12,12,16,44,32.20
2015,12,12,16,45,25.70
2015,12,12,16,46,37.00
2015,12,12,16,47,25.70
2015,12,12,16,48,25.70
2015,12,12,16,49,27.40
2015,12,12,16,50,35.40
2015,12,12,16,51,17.70
2015,12,12,16,52,24.20
2015,12,12,16,53,17.70
2015,12,12,16,54,11.30
2015,12,12,16,55,25.70
2015,12,12,16,56,20.90
2015,12,12,16,57,20.90
2015,12,12,16,58,20.90
2015,12,12,16,59,27.40
2015,12,12,17,00,20.90
2015,12,12,17,01,22.50
2015,12,12,17,02,29.00
2015,12,12,17,03,24.20
2015,12,12,17,04,17.70
2015,12,12,17,05,25.70
2015,12,12,17,06,22.50
2015,12,12,17,07,22.50
2015,12,12,17,08,19.30
2015,12,12,17,09,17.70
2015,12,12,17,10,22.50
2015,12,12,17,11,16.10
2015,12,12,17,12,19.30
2015,12,12,17,13,17.70
2015,12,12,17,14,9.60
2015,12,12,17,15,19.30
2015,12,12,17,16,17.70
2015,12,12,17,17,17.70
2015,12,12,17,18,14.50
2015,12,12,17,19,16.10
2015,12,12,17,20,17.70
2015,12,12,17,21,17.70
2015,12,12,17,22,17.70
2015,12,12,17,23,14.50
2015,12,12,17,24,9.60
2015,12,12,17,25,16.10
2015,12,12,17,26,17.70
2015,12,12,17,27,11.30
2015,12,12,17,28,12.90
2015,12,12,17,29,33.80
2015,12,12,17,30,27.40
2015,12,12,17,31,25.70
2015,12,12,17,32,32.20
2015,12,12,17,33,24.20
2015,12,12,17,34,22.50
2015,12,12,17,35,25.70
2015,12,12,17,36,20.90
2015,12,12,17,37,11.30
2015,12,12,17,38,25.70
2015,12,12,17,39,22.50
2015,12,12,17,40,24.20
2015,12,12,17,41,22.50
2015,12,12,17,42,24.20
2015,12,12,17,43,29.00
2015,12,12,17,44,20.90
2015,12,12,17,45,24.20
2015,12,12,17,46,19.30
2015,12,12,17,47,14.50
2015,12,12,17,48,22.50
2015,12,12,17,49,24.20
2015,12,12,17,50,17.70
2015,12,12,17,51,24.20
2015,12,12,17,52,17.70
2015,12,12,17,53,16.10
2015,12,12,17,54,24.20
2015,12,12,17,55,16.10
2015,12,12,17,56,14.50
2015,12,12,17,57,14.50
2015,12,12,17,58,16.10
2015,12,12,17,59,30.60
2015,12,12,18,00,25.70
2015,12,12,18,01,19.30
2015,12,12,18,02,11.30
2015,12,12,18,03,11.30
2015,12,12,18,04,20.90
2015,12,12,18,05,9.60
2015,12,12,18,06,4.80
2015,12,12,18,07,4.80
2015,12,12,18,08,14.50
2015,12,12,18,09,8.10
2015,12,12,18,10,11.30
2015,12,12,18,11,16.10
2015,12,12,18,12,16.10
2015,12,12,18,13,9.60
2015,12,12,18,14,6.40
2015,12,12,18,15,8.10
2015,12,12,18,16,25.70
2015,12,12,18,17,19.30
2015,12,12,18,18,9.60
2015,12,12,18,19,19.30
2015,12,12,18,20,12.90
2015,12,12,18,21,16.10
2015,12,12,18,22,14.50
2015,12,12,18,23,8.10
2015,12,12,18,24,9.60
2015,12,12,18,25,6.40
2015,12,12,18,26,9.60
2015,12,12,18,27,11.30
2015,12,12,18,28,14.50
2015,12,12,18,29,8.10
2015,12,12,18,30,6.40
2015,12,12,18,31,14.50
2015,12,12,18,32,16.10
2015,12,12,18,33,19.30
2015,12,12,18,34,14.50
2015,12,12,18,35,16.10
2015,12,12,18,36,16.10
2015,12,12,18,37,14.50
2015,12,12,18,38,9.60
2015,12,12,18,39,9.60
2015,12,12,18,40,9.60
2015,12,12,18,41,9.60
2015,12,12,18,42,14.50
2015,12,12,18,43,8.10
2015,12,12,18,44,11.30
2015,12,12,18,45,9.60
2015,12,12,18,46,9.60
2015,12,12,18,47,9.60
2015,12,12,18,48,16.10
2015,12,12,18,49,11.30
2015,12,12,18,50,11.30
2015,12,12,18,51,16.10
2015,12,12,18,52,19.30
2015,12,12,18,53,14.50
2015,12,12,18,54,6.40
2015,12,12,18,55,22.50
2015,12,12,18,56,16.10
2015,12,12,18,57,9.60
2015,12,12,18,58,9.60
2015,12,12,18,59,11.30
2015,12,12,19,00,19.30
2015,12,12,19,01,11.30
2015,12,12,19,02,8.10
2015,12,12,19,03,6.40
2015,12,12,19,04,9.60
2015,12,12,19,05,9.60
2015,12,12,19,06,20.90
2015,12,12,19,07,24.20
2015,12,12,19,08,19.30
2015,12,12,19,09,16.10
2015,12,12,19,10,9.60
2015,12,12,19,11,6.40
2015,12,12,19,12,8.10
2015,12,12,19,13,20.90
2015,12,12,19,14,25.70
2015,12,12,19,15,14.50
2015,12,12,19,16,20.90
2015,12,12,19,17,19.30
2015,12,12,19,18,17.70
2015,12,12,19,19,19.30
2015,12,12,19,20,20.90
2015,12,12,19,21,11.30
2015,12,12,19,22,27.40
2015,12,12,19,23,22.50
2015,12,12,19,24,22.50
2015,12,12,19,25,19.30
2015,12,12,19,26,24.20
2015,12,12,19,27,14.50
2015,12,12,19,28,8.10
2015,12,12,19,29,8.10
2015,12,12,19,30,9.60
2015,12,12,19,31,8.10
2015,12,12,19,32,6.40
2015,12,12,19,33,9.60
2015,12,12,19,34,9.60
2015,12,12,19,35,11.30
2015,12,12,19,36,11.30
2015,12,12,19,37,22.50
2015,12,12,19,38,16.10
2015,12,12,19,39,16.10
2015,12,12,19,40,29.00
2015,12,12,19,41,29.00
2015,12,12,19,42,20.90
2015,12,12,19,43,27.40
2015,12,12,19,44,14.50
2015,12,12,19,45,14.50
2015,12,12,19,46,9.60
2015,12,12,19,47,16.10
2015,12,12,19,48,17.70
2015,12,12,19,49,32.20
2015,12,12,19,50,16.10
2015,12,12,19,51,20.90
2015,12,12,19,52,20.90
2015,12,12,19,53,16.10
2015,12,12,19,54,16.10
2015,12,12,19,55,20.90
2015,12,12,19,56,16.10
2015,12,12,19,57,22.50
2015,12,12,19,58,9.60
2015,12,12,19,59,27.40
2015,12,12,20,00,17.70
2015,12,12,20,01,27.40
2015,12,12,20,02,22.50
2015,12,12,20,03,19.30
2015,12,12,20,04,17.70
2015,12,12,20,05,20.90
2015,12,12,20,06,20.90
2015,12,12,20,07,29.00
2015,12,12,20,08,29.00
2015,12,12,20,09,24.20
2015,12,12,20,10,22.50
2015,12,12,20,11,17.70
2015,12,12,20,12,16.10
2015,12,12,20,13,9.60
2015,12,12,20,14,30.60
2015,12,12,20,15,8.10
2015,12,12,20,16,24.20
2015,12,12,20,17,9.60
2015,12,12,20,18,12.90
2015,12,12,20,19,19.30
2015,12,12,20,20,25.70
2015,12,12,20,21,8.10
2015,12,12,20,22,22.50
2015,12,12,20,23,8.10
2015,12,12,20,24,27.40
2015,12,12,20,25,19.30
2015,12,12,20,26,11.30
2015,12,12,20,27,24.20
2015,12,12,20,28,14.50
2015,12,12,20,29,14.50
2015,12,12,20,30,14.50
2015,12,12,20,31,29.00
2015,12,12,20,32,38.60
2015,12,12,20,33,9.60
2015,12,12,20,34,11.30
2015,12,12,20,35,29.00
2015,12,12,20,36,22.50
2015,12,12,20,37,19.30
2015,12,12,20,38,27.40
2015,12,12,20,39,20.90
2015,12,12,20,40,11.30
2015,12,12,20,41,22.50
2015,12,12,20,42,29.00
2015,12,12,20,43,53.10
2015,12,12,20,44,37.00
2015,12,12,20,45,35.40
2015,12,12,20,46,48.30
2015,12,12,20,47,25.70
2015,12,12,20,48,32.20
2015,12,12,20,49,11.30
2015,12,12,20,50,25.70
2015,12,12,20,51,19.30
2015,12,12,20,52,37.00
2015,12,12,20,53,35.40
2015,12,12,20,54,25.70
2015,12,12,20,55,29.00
2015,12,12,20,56,41.80
2015,12,12,20,57,29.00
2015,12,12,20,58,20.90
2015,12,12,20,59,32.20
2015,12,12,21,00,22.50
2015,12,12,21,01,33.80
2015,12,12,21,02,30.60
2015,12,12,21,03,24.20
2015,12,12,21,04,22.50
2015,12,12,21,05,25.70
2015,12,12,21,06,24.20
2015,12,12,21,07,27.40
2015,12,12,21,08,32.20
2015,12,12,21,09,38.60
2015,12,12,21,10,33.80
2015,12,12,21,11,35.40
2015,12,12,21,12,32.20
2015,12,12,21,13,41.80
2015,12,12,21,14,41.80
2015,12,12,21,15,53.10
2015,12,12,21,16,35.40
2015,12,12,21,17,20.90
2015,12,12,21,18,33.80
2015,12,12,21,19,32.20
2015,12,12,21,20,24.20
2015,12,12,21,21,24.20
2015,12,12,21,22,37.00
2015,12,12,21,23,32.20